Skip Page Navigation
NASA JPL Caltech
NASA Logo - Jet Propulsion Laboratory + View the NASA Portal
+ Near-Earth Object (NEO) Project
Search JPL
JPL Home Earth Solar System Stars & Galaxies Technology
JPL Solar System Dynamics
BODIES ORBITS EPHEMERIDES TOOLS PHYSICAL DATA DISCOVERY FAQ SITE MAP
JPL Small-Body Database Browser
Search: [ help ]  
95179 Berko (2002 BO)
Classification: Main-belt Asteroid          SPK-ID: 2095179
Ephemeris | Orbit Diagram | Orbital Elements | Physical Parameters | Discovery Circumstances ]

[ show orbit diagram ]
Orbital Elements at Epoch 2455200.5 (2010-Jan-04.0) TDB
Reference: MPO135664 (heliocentric ecliptic J2000)
 Element Value Uncertainty (1-sigma)   Units 
e 0.1972201 n/a  
a 2.3958214 n/a AU
q 1.9233173 n/a AU
i 1.78934 n/a deg
node 155.41018 n/a deg
peri 200.40800 n/a deg
M 164.78646 n/a deg
tp 2454580.4894258
(2008-Apr-23.98942580)
n/a JED
period 1354.5033172
3.71
n/a
n/a
d
yr
n 0.26578008 n/a deg/d
Q 2.8683255 n/a AU
  Orbit Determination Parameters
   # obs. used (total)      162  
   first obs. used      2000-??-??  
   last obs. used      2007-05-25  
   # oppositions      6  
   planetary ephem.      DE403  
   quality code      1  
   fit RMS      0.47  
   data source      MPC:mpn  
   producer      MPC  

Additional Information
 T_jup = 3.502 

Ephemeris | Orbit Diagram | Orbital Elements | Physical Parameters | Discovery Circumstances ]

Physical Parameter Table
Parameter Symbol Value Units Sigma Reference Notes
absolute magnitude H 16.1 mag n/a MPO135664  

95179 Berkó           Discovered 2002 Jan. 16 by K. Sárneczky and Z. Heiner at Piszkesteto.
Ern\H o Berkó (b. 1955) is a Hungarian amateur astronomer interested in deep-sky objects and double stars. He is an independent discoverer of the supernova 1999by, and as of Oct. 2006 the Washington Double Star Catalog contains over 160 double stars discovered by him.
NOTE: some special characters may not display properly (any characters within {} are an attempt to place the proper accent above a character)
Reference: 20070106/MPCPages.arcLast Updated: 2007-01-09
Ephemeris | Orbit Diagram | Orbital Elements | Physical Parameters | Discovery Circumstances ]
ABOUT SSD CREDITS/AWARDS PRIVACY/COPYRIGHT GLOSSARY LINKS
FirstGov 2009-Nov-24 11:34 UT
(server date/time)  
NASA Home Page
Site Manager:   Donald K. Yeomans
Webmaster  Alan B. Chamberlin